Volver al catálogo

STARLINK-32524

ActivoComunicacionesVLEO
NORAD 62159·PAYLOAD·🇺🇸 United States

Lanzado Nov 30, 2024 desde Cape Canaveral Space Force Station

Loading…

Próximos Pases (próximas 24 horas)

TLE

ActualizadoSource: CelesTrak SupGP

Época: Sep 14, 2026, 22:21 UTC

1 62159C 24224W   26257.93173611 -.00022525  00000+0 -81587-3 0  2576
2 62159  43.0017 172.8361 0001286 262.8238  39.8405 15.27589745    19

Sigue STARLINK-32524 en tiempo real con AllMySat

Download on the App Store